Time,TemperatureF,DewpointF,PressureIn,WindDirection,WindDirectionDegrees,WindSpeedMPH,WindSpeedGustMPH,Humidity,HourlyPrecipIn,Conditions,Clouds,dailyrainin,SolarRadiationWatts/m^2,SoftwareType,DateUTC
2013-02-24 00:01:00,22.0,15.0,-100.00,NW,311,8.0,16.0,73,0.00,,,0.00,0.000000,,2013-02-24 07:01:00,
2013-02-24 00:11:00,22.0,15.0,-100.00,NW,311,8.0,16.0,73,0.00,,,0.00,0.000000,,2013-02-24 07:11:00,
2013-02-24 00:32:00,24.0,10.0,-100.00,NW,312,7.0,18.0,55,0.00,,,0.00,0.000000,,2013-02-24 07:32:00,
2013-02-24 00:42:00,24.0,10.0,-100.00,NW,312,7.0,18.0,55,0.00,,,0.00,0.000000,,2013-02-24 07:42:00,
2013-02-24 00:52:00,24.0,10.0,-100.00,NW,312,7.0,18.0,55,0.00,,,0.00,0.000000,,2013-02-24 07:52:00,
2013-02-24 01:01:00,24.0,10.0,-100.00,NW,312,7.0,18.0,55,0.00,,,0.00,0.000000,,2013-02-24 08:01:00,
2013-02-24 01:11:00,24.0,10.0,-100.00,NW,312,7.0,18.0,55,0.00,,,0.00,0.000000,,2013-02-24 08:11:00,
2013-02-24 01:42:00,23.0,9.0,-100.00,NW,324,8.0,15.0,55,0.00,,,0.00,0.000000,,2013-02-24 08:42:00,
2013-02-24 01:54:00,23.0,9.0,-100.00,NW,324,8.0,15.0,55,0.00,,,0.00,0.000000,,2013-02-24 08:54:00,
2013-02-24 02:01:00,23.0,9.0,-100.00,NW,324,8.0,15.0,55,0.00,,,0.00,0.000000,,2013-02-24 09:01:00,
2013-02-24 02:11:00,23.0,9.0,-100.00,NW,324,8.0,15.0,55,0.00,,,0.00,0.000000,,2013-02-24 09:11:00,
2013-02-24 02:42:00,21.0,10.0,-100.00,NW,309,6.0,14.0,61,0.00,,,0.00,0.000000,,2013-02-24 09:42:00,
2013-02-24 02:52:00,21.0,10.0,-100.00,NW,309,6.0,14.0,61,0.00,,,0.00,0.000000,,2013-02-24 09:52:00,
2013-02-24 03:01:00,21.0,10.0,-100.00,NW,309,6.0,14.0,61,0.00,,,0.00,0.000000,,2013-02-24 10:01:00,
2013-02-24 03:11:00,21.0,10.0,-100.00,NW,309,6.0,14.0,61,0.00,,,0.00,0.000000,,2013-02-24 10:11:00,
2013-02-24 03:42:00,18.0,9.0,-100.00,NW,311,8.0,13.0,67,0.00,,,0.00,0.000000,,2013-02-24 10:42:00,
2013-02-24 03:52:00,18.0,9.0,-100.00,NW,311,8.0,13.0,67,0.00,,,0.00,0.000000,,2013-02-24 10:52:00,
2013-02-24 04:01:00,18.0,9.0,-100.00,NW,311,8.0,13.0,67,0.00,,,0.00,0.000000,,2013-02-24 11:01:00,
2013-02-24 04:11:00,18.0,9.0,-100.00,NW,311,8.0,13.0,67,0.00,,,0.00,0.000000,,2013-02-24 11:11:00,
2013-02-24 04:32:00,18.0,10.0,-100.00,NW,326,11.0,15.0,69,0.00,,,0.00,0.000000,,2013-02-24 11:32:00,
2013-02-24 04:42:00,18.0,10.0,-100.00,NW,326,11.0,15.0,69,0.00,,,0.00,0.000000,,2013-02-24 11:42:00,
2013-02-24 04:52:00,18.0,10.0,-100.00,NW,326,11.0,15.0,69,0.00,,,0.00,0.000000,,2013-02-24 11:52:00,
2013-02-24 05:01:00,18.0,10.0,-100.00,NW,326,11.0,15.0,69,0.00,,,0.00,0.000000,,2013-02-24 12:01:00,
2013-02-24 05:11:00,18.0,10.0,-100.00,NW,326,11.0,15.0,69,0.00,,,0.00,0.000000,,2013-02-24 12:11:00,
2013-02-24 05:33:00,17.0,4.0,-100.00,North,357,8.0,18.0,55,0.00,,,0.00,0.000000,,2013-02-24 12:33:00,
2013-02-24 05:46:00,17.0,4.0,-100.00,North,357,8.0,18.0,55,0.00,,,0.00,0.000000,,2013-02-24 12:46:00,
2013-02-24 05:56:00,17.0,4.0,-100.00,North,357,8.0,18.0,55,0.00,,,0.00,0.000000,,2013-02-24 12:56:00,
2013-02-24 06:06:00,17.0,4.0,-100.00,North,357,8.0,18.0,55,0.00,,,0.00,0.000000,,2013-02-24 13:06:00,
2013-02-24 06:14:00,17.0,4.0,-100.00,North,357,8.0,18.0,55,0.00,,,0.00,0.000000,,2013-02-24 13:14:00,
2013-02-24 06:45:00,15.0,0.0,-100.00,NNW,335,10.0,19.0,50,0.00,,,0.00,0.000000,,2013-02-24 13:45:00,
2013-02-24 06:54:00,15.0,0.0,-100.00,NNW,335,10.0,19.0,50,0.00,,,0.00,0.000000,,2013-02-24 13:54:00,
2013-02-24 07:03:00,15.0,0.0,-100.00,NNW,335,10.0,19.0,50,0.00,,,0.00,0.000000,,2013-02-24 14:03:00,
2013-02-24 07:45:00,14.0,0.0,-100.00,North,359,8.0,19.0,54,0.00,,,0.00,2.000000,,2013-02-24 14:45:00,
2013-02-24 07:54:00,14.0,0.0,-100.00,North,359,8.0,19.0,54,0.00,,,0.00,2.000000,,2013-02-24 14:54:00,
2013-02-24 08:02:00,14.0,0.0,-100.00,North,359,8.0,19.0,54,0.00,,,0.00,2.000000,,2013-02-24 15:02:00,
2013-02-24 08:12:00,14.0,0.0,-100.00,North,359,8.0,19.0,54,0.00,,,0.00,2.000000,,2013-02-24 15:12:00,
2013-02-24 08:32:00,19.0,4.0,-100.00,North,352,12.0,18.0,51,0.00,,,0.00,130.000000,,2013-02-24 15:32:00,
2013-02-24 08:42:00,19.0,4.0,-100.00,North,352,12.0,18.0,51,0.00,,,0.00,130.000000,,2013-02-24 15:42:00,
2013-02-24 08:52:00,19.0,4.0,-100.00,North,352,12.0,18.0,51,0.00,,,0.00,130.000000,,2013-02-24 15:52:00,
2013-02-24 09:01:00,19.0,4.0,-100.00,North,352,12.0,18.0,51,0.00,,,0.00,130.000000,,2013-02-24 16:01:00,
2013-02-24 09:11:00,19.0,4.0,-100.00,North,352,12.0,18.0,51,0.00,,,0.00,130.000000,,2013-02-24 16:11:00,
2013-02-24 09:42:00,21.0,5.0,-100.00,North,350,16.0,22.0,49,0.00,,,0.00,345.000000,,2013-02-24 16:42:00,
2013-02-24 09:52:00,21.0,5.0,-100.00,North,350,16.0,22.0,49,0.00,,,0.00,345.000000,,2013-02-24 16:52:00,
2013-02-24 10:01:00,21.0,5.0,-100.00,North,350,16.0,22.0,49,0.00,,,0.00,345.000000,,2013-02-24 17:01:00,
2013-02-24 10:11:00,21.0,5.0,-100.00,North,350,16.0,22.0,49,0.00,,,0.00,345.000000,,2013-02-24 17:11:00,
2013-02-24 10:32:00,23.0,5.0,-100.00,NNW,347,17.0,28.0,45,0.00,,,0.00,528.000000,,2013-02-24 17:32:00,
2013-02-24 10:42:00,23.0,5.0,-100.00,NNW,347,17.0,28.0,45,0.00,,,0.00,528.000000,,2013-02-24 17:42:00,
2013-02-24 10:52:00,23.0,5.0,-100.00,NNW,347,17.0,28.0,45,0.00,,,0.00,528.000000,,2013-02-24 17:52:00,
2013-02-24 11:01:00,23.0,5.0,-100.00,NNW,347,17.0,28.0,45,0.00,,,0.00,528.000000,,2013-02-24 18:01:00,
2013-02-24 11:11:00,23.0,5.0,-100.00,NNW,347,17.0,28.0,45,0.00,,,0.00,528.000000,,2013-02-24 18:11:00,
2013-02-24 11:42:00,25.0,5.0,-100.00,North,357,16.0,27.0,42,0.00,,,0.00,616.000000,,2013-02-24 18:42:00,
2013-02-24 11:52:00,25.0,5.0,-100.00,North,357,16.0,27.0,42,0.00,,,0.00,616.000000,,2013-02-24 18:52:00,
2013-02-24 12:01:00,25.0,5.0,-100.00,North,357,16.0,27.0,42,0.00,,,0.00,616.000000,,2013-02-24 19:01:00,
2013-02-24 12:11:00,25.0,5.0,-100.00,North,357,16.0,27.0,42,0.00,,,0.00,616.000000,,2013-02-24 19:11:00,
2013-02-24 12:42:00,26.0,6.0,-100.00,North,351,14.0,32.0,42,0.00,,,0.00,746.000000,,2013-02-24 19:42:00,
2013-02-24 12:52:00,26.0,6.0,-100.00,North,351,14.0,32.0,42,0.00,,,0.00,746.000000,,2013-02-24 19:52:00,
2013-02-24 13:02:00,26.0,6.0,-100.00,North,351,14.0,32.0,42,0.00,,,0.00,746.000000,,2013-02-24 20:02:00,
2013-02-24 13:11:00,26.0,6.0,-100.00,North,351,14.0,32.0,42,0.00,,,0.00,746.000000,,2013-02-24 20:11:00,
2013-02-24 13:42:00,26.0,7.0,-100.00,NNW,346,17.0,30.0,43,0.00,,,0.00,554.000000,,2013-02-24 20:42:00,
2013-02-24 13:52:00,26.0,7.0,-100.00,NNW,346,17.0,30.0,43,0.00,,,0.00,554.000000,,2013-02-24 20:52:00,
2013-02-24 14:01:00,26.0,7.0,-100.00,NNW,346,17.0,30.0,43,0.00,,,0.00,554.000000,,2013-02-24 21:01:00,
2013-02-24 14:11:00,26.0,7.0,-100.00,NNW,346,17.0,30.0,43,0.00,,,0.00,554.000000,,2013-02-24 21:11:00,
2013-02-24 14:42:00,27.0,5.0,-100.00,NNW,347,20.0,32.0,39,0.00,,,0.00,490.000000,,2013-02-24 21:42:00,
2013-02-24 14:52:00,27.0,5.0,-100.00,NNW,347,20.0,32.0,39,0.00,,,0.00,490.000000,,2013-02-24 21:52:00,
2013-02-24 15:01:00,27.0,5.0,-100.00,NNW,347,20.0,32.0,39,0.00,,,0.00,490.000000,,2013-02-24 22:01:00,
2013-02-24 15:11:00,27.0,5.0,-100.00,NNW,347,20.0,32.0,39,0.00,,,0.00,490.000000,,2013-02-24 22:11:00,
2013-02-24 15:42:00,30.0,6.0,-100.00,NNW,334,17.0,28.0,36,0.00,,,0.00,557.000000,,2013-02-24 22:42:00,
2013-02-24 15:52:00,30.0,6.0,-100.00,NNW,334,17.0,28.0,36,0.00,,,0.00,557.000000,,2013-02-24 22:52:00,
2013-02-24 16:02:00,30.0,6.0,-100.00,NNW,334,17.0,28.0,36,0.00,,,0.00,557.000000,,2013-02-24 23:02:00,
2013-02-24 16:11:00,30.0,6.0,-100.00,NNW,334,17.0,28.0,36,0.00,,,0.00,557.000000,,2013-02-24 23:11:00,
2013-02-24 16:32:00,30.0,4.0,-100.00,NNW,347,17.0,30.0,32,0.00,,,0.00,413.000000,,2013-02-24 23:32:00,
2013-02-24 16:42:00,30.0,4.0,-100.00,NNW,347,17.0,30.0,32,0.00,,,0.00,413.000000,,2013-02-24 23:42:00,
2013-02-24 16:52:00,30.0,4.0,-100.00,NNW,347,17.0,30.0,32,0.00,,,0.00,413.000000,,2013-02-24 23:52:00,
2013-02-24 17:01:00,30.0,4.0,-100.00,NNW,347,17.0,30.0,32,0.00,,,0.00,413.000000,,2013-02-25 00:01:00,
2013-02-24 17:11:00,30.0,4.0,-100.00,NNW,347,17.0,30.0,32,0.00,,,0.00,413.000000,,2013-02-25 00:11:00,
2013-02-24 17:42:00,30.0,4.0,-100.00,NNW,336,17.0,29.0,32,0.00,,,0.00,258.000000,,2013-02-25 00:42:00,
2013-02-24 17:52:00,30.0,4.0,-100.00,NNW,336,17.0,29.0,32,0.00,,,0.00,258.000000,,2013-02-25 00:52:00,
2013-02-24 18:01:00,30.0,4.0,-100.00,NNW,336,17.0,29.0,32,0.00,,,0.00,258.000000,,2013-02-25 01:01:00,
2013-02-24 18:11:00,30.0,4.0,-100.00,NNW,336,17.0,29.0,32,0.00,,,0.00,258.000000,,2013-02-25 01:11:00,
2013-02-24 18:42:00,28.0,4.0,-100.00,NNW,342,16.0,27.0,35,0.00,,,0.00,120.000000,,2013-02-25 01:42:00,
2013-02-24 18:52:00,28.0,4.0,-100.00,NNW,342,16.0,27.0,35,0.00,,,0.00,120.000000,,2013-02-25 01:52:00,
2013-02-24 19:01:00,28.0,4.0,-100.00,NNW,342,16.0,27.0,35,0.00,,,0.00,120.000000,,2013-02-25 02:01:00,
2013-02-24 19:11:00,28.0,4.0,-100.00,NNW,342,16.0,27.0,35,0.00,,,0.00,120.000000,,2013-02-25 02:11:00,
2013-02-24 19:42:00,25.0,6.0,-100.00,NNW,333,12.0,23.0,44,0.00,,,0.00,2.000000,,2013-02-25 02:42:00,
2013-02-24 19:52:00,25.0,6.0,-100.00,NNW,333,12.0,23.0,44,0.00,,,0.00,2.000000,,2013-02-25 02:52:00,
2013-02-24 20:01:00,25.0,6.0,-100.00,NNW,333,12.0,23.0,44,0.00,,,0.00,2.000000,,2013-02-25 03:01:00,
2013-02-24 20:11:00,25.0,6.0,-100.00,NNW,333,12.0,23.0,44,0.00,,,0.00,2.000000,,2013-02-25 03:11:00,
2013-02-24 20:32:00,23.0,7.0,-100.00,NNW,339,9.0,19.0,49,0.00,,,0.00,0.000000,,2013-02-25 03:32:00,
2013-02-24 20:42:00,23.0,7.0,-100.00,NNW,339,9.0,19.0,49,0.00,,,0.00,0.000000,,2013-02-25 03:42:00,
2013-02-24 20:52:00,23.0,7.0,-100.00,NNW,339,9.0,19.0,49,0.00,,,0.00,0.000000,,2013-02-25 03:52:00,
2013-02-24 21:01:00,23.0,7.0,-100.00,NNW,339,9.0,19.0,49,0.00,,,0.00,0.000000,,2013-02-25 04:01:00,
2013-02-24 21:11:00,23.0,7.0,-100.00,NNW,339,9.0,19.0,49,0.00,,,0.00,0.000000,,2013-02-25 04:11:00,
2013-02-24 21:42:00,22.0,7.0,-100.00,NNW,335,9.0,14.0,52,0.00,,,0.00,0.000000,,2013-02-25 04:42:00,
2013-02-24 21:52:00,22.0,7.0,-100.00,NNW,335,9.0,14.0,52,0.00,,,0.00,0.000000,,2013-02-25 04:52:00,
2013-02-24 22:01:00,22.0,7.0,-100.00,NNW,335,9.0,14.0,52,0.00,,,0.00,0.000000,,2013-02-25 05:01:00,
2013-02-24 22:11:00,22.0,7.0,-100.00,NNW,335,9.0,14.0,52,0.00,,,0.00,0.000000,,2013-02-25 05:11:00,
2013-02-24 22:42:00,20.0,7.0,-100.00,NNW,333,8.0,13.0,57,0.00,,,0.00,0.000000,,2013-02-25 05:42:00,
2013-02-24 22:52:00,20.0,7.0,-100.00,NNW,333,8.0,13.0,57,0.00,,,0.00,0.000000,,2013-02-25 05:52:00,
2013-02-24 23:02:00,20.0,7.0,-100.00,NNW,333,8.0,13.0,57,0.00,,,0.00,0.000000,,2013-02-25 06:02:00,
2013-02-24 23:11:00,20.0,7.0,-100.00,NNW,333,8.0,13.0,57,0.00,,,0.00,0.000000,,2013-02-25 06:11:00,
2013-02-24 23:42:00,19.0,7.0,-100.00,NNW,338,9.0,14.0,59,0.00,,,0.00,0.000000,,2013-02-25 06:42:00,
2013-02-24 23:52:00,19.0,7.0,-100.00,NNW,338,9.0,14.0,59,0.00,,,0.00,0.000000,,2013-02-25 06:52:00,